COSMOS 2256

Satellite information

Favourite Embed

Satellite Type and Status

PAYLOADIN ORBIT

Key statistics

Satellite COSMOS 2256 at a glance.

Uptime

11764

Days in orbit

Revolutions

≈ 12.6

Per day

Orbit

LEO

Low Earth Orbit

Inclination

82.6

Latest

Satellite identification and parameters

Extended collection of information and parameters for COSMOS 2256.

Object identification

Identified? True

Debris? False

Object name: COSMOS 2256

International designator: 1993-038E

Object number (NORAD): 22691

Object ID (CCSDS): 22691

Country: COMMONWEALTH OF INDEPENDENT STATES (CIS)

Current information (Y/N): Y

RCS size: LARGE

Orbital parameters

Period: 113.93 minutes

Inclination: 82.5766 deg

SMA: 7784.871 km

Apoapsis: 1411.45 km

Periapsis: 1402.022 km

RAAN: 33.0327 deg

Eccentricy: 0.00060552

Argument of periapsis: 269.0563 deg

Mean anomaly: 217.5191 deg

Mean motion: 12.6393754 rev/day

Mean motion (dot): 0.00000014 rev/day2

B* drag term: 0.000019456573 1/REarth

Two-line elements (TLE)

Creation date: Sept. 7, 2025, 3:09 a.m.

Reference frame: TEME

Reference center: EARTH

Epoch: Sept. 6, 2025, 10:38 p.m. UTC

TLE line 0: 0 COSMOS 2256

TLE line 1: 1 22691U 93038E 25249.94329095 .00000014 00000-0 19457-4 0 9991

TLE line 2: 2 22691 82.5766 33.0327 0006055 269.0563 217.5191 12.63937540486038

Live tracking on map

Real-time ground track for satellite COSMOS 2256.

In-orbit conjunctions

There are no conjunctions computed for COSMOS 2256, at the moment. Check back to stay up to date, as we update our databases every day.

Go to all conjunctions

Associated space launch

Second generation store-dump military communications satellites

COSMOS 2256 was lifted into orbit during the mission ‘Tsiklon-3 | Strela-3 95 to 100’, on board a Tsiklon-3 space rocket.

The launch took place on June 24, 1993, 4:12 a.m. from 32/1.

For more information about the launch, click the button.

Launch to space Tsiklon-3 | Strela-3 95 to 100
Tsiklon-3 | Strela-3 95 to 100

Agency: N/A

Status: Launch Successful

Launch date: June 24, 1993, 4:12 a.m. UTC

Rocket: Tsiklon-3

Launch pad: 32/1

Location: Plesetsk Cosmodrome, Russian Federation

...

Latest news about this satellite

There are no fresh news available about this satellite. Check back as we update our databases every day.


Newsletter sign-up

Weekly statistics, charts and insights to help you stay on top of the space industry.